EW7138 Weather Reports


time (UTC)temp
F
wind
direction
speed
knots
gust
knots
rain 1hr
in
rain 24hr
in
rain mn
in
humidity
%
barometer
mb
20260507001918 76 348 2.6 8.7 0.00 0.00 0.00 66 1014.4
20260507001654 75 56 1.7 11.3 0.00 0.00 0.00 66 1014.4
20260507001416 75 301 0.9 7.0 0.00 0.00 0.00 65 1014.4
20260507001242 75 5 3.5 11.3 0.00 0.00 0.00 67 1014.6
20260507000936 74 323 1.7 7.0 0.00 0.00 0.00 66 1014.4
20260506235412 74 351 3.5 9.6 0.00 0.00 0.00 67 1014.5
20260506234912 75 255 4.3 9.6 0.00 0.00 0.00 67 1014.4
20260506234700 75 21 3.5 8.7 0.00 0.00 0.00 67 1014.3
20260506234414 74 24 1.7 7.8 0.00 0.00 0.00 67 1014.2
20260506233425 75 332 1.7 6.1 0.00 0.00 0.00 66 1014.3
20260506233411 75 306 2.6 8.7 0.00 0.00 0.00 67 1014.6
20260506232406 76 307 1.7 7.0 0.00 0.00 0.00 66 1014.4
20260506231904 75 349 0.9 8.7 0.00 0.00 0.00 67 1014.5
20260506231404 74 314 0.9 8.7 0.00 0.00 0.00 66 1014.5
20260506230903 74 290 2.6 9.6 0.00 0.00 0.00 68 1014.5
20260506230401 74 339 2.6 9.6 0.00 0.00 0.00 68 1014.6
20260506225900 74 345 4.3 7.8 0.00 0.00 0.00 67 1014.8
20260506225400 75 36 1.7 8.7 0.00 0.00 0.00 67 1014.9
20260506224902 74 7 3.5 8.7 0.00 0.00 0.00 68 1014.7
20260506224358 74 342 6.1 8.7 0.00 0.00 0.00 67 1014.9
20260506223856 74 321 0.9 8.7 0.00 0.00 0.00 68 1015.0
20260506223356 75 52 4.3 7.8 0.00 0.00 0.00 67 1014.8
20260506222855 75 320 2.6 7.0 0.00 0.00 0.00 66 1015.0
20260506222357 75 327 1.7 7.8 0.00 0.00 0.00 67 1015.1
20260506222158 77 316 0.9 7.8 0.00 0.00 0.00 66 1014.9
20260506221859 75 337 2.6 7.8 0.00 0.00 0.00 66 1015.1
20260506220852 76 6 0.9 6.1 0.00 0.00 0.00 66 1015.1
20260506220349 76 289 1.7 6.1 0.00 0.00 0.00 64 1015.1
20260506215849 76 12 1.7 3.5 0.00 0.00 0.00 65 1015.3
20260506215805 76 39 1.7 6.1 0.00 0.00 0.00 65 1015.3
20260506215441 77 348 1.7 6.1 0.00 0.00 0.00 63 1015.4
20260506215359 74 72 1.7 5.2 0.00 0.00 0.00 65 1015.3
20260506213845 75 324 1.7 6.1 0.00 0.00 0.00 65 1015.6
20260506213344 74 68 1.7 7.8 0.00 0.00 0.00 68 1015.6
20260506212845 75 78 4.3 7.8 0.00 0.00 0.00 67 1015.6
20260506212341 75 355 5.2 7.0 0.00 0.00 0.00 65 1015.6
20260506211840 74 14 2.6 7.0 0.00 0.00 0.00 68 1015.9
20260506211340 74 354 1.7 6.1 0.00 0.00 0.00 67 1015.8
20260506210839 75 61 1.7 6.1 0.00 0.00 0.00 66 1015.8
20260506210342 75 59 0.9 8.7 0.00 0.00 0.00 67 1015.8
20260506205837 73 354 0.9 8.7 0.00 0.00 0.00 69 1016.0
20260506205335 74 35 2.6 7.0 0.00 0.00 0.00 69 1016.0
20260506205248 65 356 0.0 6.1 0.00 0.00 0.00 82 1017.3
20260506205201 54 345 0.0 0.0 0.00 0.00 0.00 99 1016.6
20260506205152 53 349 0.0 0.0 0.00 0.00 0.00 99 1016.1
20260506205135 56 351 0.0 0.0 0.00 0.01 0.00 97 1015.8
20260506204834 74 349 1.7 6.1 0.00 0.00 0.00 68 1015.8
20260506204334 76 32 1.7 6.1 0.00 0.00 0.00 67 1016.1
20260506203837 73 53 0.9 7.0 0.00 0.00 0.00 65 1016.1
20260506203423 74 63 3.5 7.0 0.00 0.00 0.00 67 1016.2
20260506202950 59 306 0.0 3.5 0.00 0.01 0.01 90 1013.8
20260506202831 74 354 0.9 5.2 0.00 0.00 0.00 65 1016.4
20260506202331 73 131 2.6 7.0 0.00 0.00 0.00 70 1016.3
20260506201829 72 336 0.9 7.0 0.00 0.00 0.00 71 1016.2
20260506201428 73 49 2.6 6.1 0.00 0.00 0.00 71 1016.4
20260506201334 73 293 3.5 6.1 0.00 0.00 0.00 70 1016.4
20260506200325 73 31 1.7 5.2 0.00 0.00 0.00 70 1016.4
20260506195825 71 4 0.9 9.6 0.00 0.00 0.00 72 1016.7
20260506195324 71 47 4.3 7.8 0.00 0.00 0.00 74 1016.7
20260506194822 70 24 3.5 7.0 0.00 0.00 0.00 73 1016.7
20260506194323 70 102 1.7 7.0 0.00 0.00 0.00 75 1016.4
20260506194309 71 7 2.6 5.2 0.00 0.00 0.00 74 1016.8
20260506193830 71 10 1.7 7.0 0.00 0.00 0.00 75 1016.5
20260506192820 71 1 1.7 5.2 0.00 0.00 0.00 74 1016.7
20260506192646 70 7 1.7 5.2 0.00 0.00 0.00 73 1016.8
20260506192340 71 357 1.7 5.2 0.00 0.00 0.00 73 1016.8
20260506191316 70 325 1.7 5.2 0.00 0.00 0.00 76 1016.8
20260506190940 68 11 1.7 6.1 0.00 0.00 0.00 77 1017.1
20260506190824 69 354 1.7 6.1 0.00 0.00 0.00 75 1017.0
20260506185812 69 15 1.7 6.1 0.00 0.00 0.00 77 1017.0
20260506185316 69 333 1.7 5.2 0.00 0.00 0.00 75 1017.1
20260506184811 69 9 2.6 2.6 0.00 0.00 0.00 73 1017.0
20260506184310 68 355 0.9 6.1 0.00 0.00 0.00 74 1017.2
20260506183811 69 347 0.9 6.1 0.00 0.00 0.00 75 1017.2
20260506183802 69 332 0.9 5.2 0.00 0.00 0.00 73 1017.2
20260506183403 68 346 1.7 3.5 0.00 0.00 0.00 74 1017.1
20260506182309 68 341 0.0 5.2 0.00 0.00 0.00 75 1017.2
20260506182249 60 288 0.9 7.0 0.00 0.01 0.01 86 1013.1
20260506181807 67 345 1.7 3.5 0.00 0.00 0.00 77 1017.4
20260506181307 68 333 3.5 3.5 0.00 0.00 0.00 75 1017.3
20260506180806 67 328 1.7 2.6 0.00 0.00 0.00 75 1017.3
20260506180304 64 340 0.0 3.5 0.00 0.00 0.00 78 1017.2
20260506175803 63 327 0.9 5.2 0.00 0.00 0.00 81 1017.4
20260506175306 67 339 1.7 5.2 0.00 0.00 0.00 80 1017.3
20260506174906 67 347 0.9 1.7 0.00 0.00 0.00 76 1017.3
20260506174309 65 353 0.9 6.1 0.00 0.00 0.00 79 1017.4
20260506173300 64 352 1.7 2.6 0.00 0.00 0.00 80 1017.4
20260506172759 64 342 1.7 2.6 0.00 0.00 0.00 81 1017.4
20260506172257 65 342 0.9 2.6 0.00 0.00 0.00 81 1017.6
20260506172136 65 344 0.9 5.2 0.00 0.00 0.00 82 1017.4
20260506171803 64 344 0.0 5.2 0.00 0.00 0.00 81 1017.5
20260506170759 64 351 1.7 5.2 0.00 0.00 0.00 83 1017.4
20260506170253 63 347 0.0 5.2 0.00 0.00 0.00 84 1017.6
20260506165752 64 346 0.9 5.2 0.00 0.00 0.00 82 1017.4
20260506165251 64 350 0.0 5.2 0.00 0.00 0.00 83 1017.5
20260506164750 63 347 0.9 1.7 0.00 0.00 0.00 84 1017.4
20260506164643 62 346 0.0 2.6 0.00 0.00 0.00 85 1017.6
20260506164248 62 347 0.0 1.7 0.00 0.00 0.00 85 1017.7
20260506163759 63 347 0.0 2.6 0.00 0.00 0.00 85 1017.6
20260506162745 62 347 0.0 1.7 0.00 0.00 0.00 86 1017.5
20260506162244 61 342 0.0 1.7 0.00 0.00 0.00 88 1017.4
20260506161744 61 347 0.9 1.7 0.00 0.00 0.00 88 1017.4
20260506161720 60 350 0.0 0.0 0.00 0.00 0.00 91 1017.6
20260506161346 59 347 0.0 0.0 0.00 0.00 0.00 91 1017.6
20260506161242 60 348 0.0 0.0 0.00 0.00 0.00 89 1017.6
20260506160801 60 346 0.0 0.0 0.00 0.00 0.00 90 1017.5
20260506155238 59 347 0.0 0.0 0.00 0.00 0.00 92 1017.5
20260506154738 59 349 0.0 0.0 0.00 0.00 0.00 92 1017.6
20260506154237 59 347 0.0 0.0 0.00 0.00 0.00 92 1017.6
20260506153732 59 347 0.0 0.0 0.00 0.00 0.00 92 1017.4
20260506153232 59 347 0.0 0.0 0.00 0.00 0.00 93 1017.4
20260506152730 58 346 0.0 0.0 0.00 0.00 0.00 93 1017.5
20260506152233 58 347 0.0 0.0 0.00 0.00 0.00 93 1017.6
20260506151848 57 346 0.0 0.0 0.00 0.00 0.00 96 1017.5
20260506151728 58 346 0.0 0.0 0.00 0.00 0.00 95 1017.5
20260506151228 58 346 0.0 0.0 0.00 0.00 0.00 95 1017.5
20260506150726 57 345 0.0 0.0 0.00 0.00 0.00 95 1017.5
20260506150234 57 345 0.0 0.0 0.00 0.00 0.00 95 1017.6
20260506145432 56 346 0.0 0.0 0.00 0.00 0.00 97 1017.4
20260506145223 57 346 0.0 0.0 0.00 0.00 0.00 96 1017.7
20260506144723 56 346 0.0 0.0 0.00 0.00 0.00 96 1017.5
20260506144221 56 346 0.0 0.0 0.00 0.00 0.00 97 1017.6
20260506143729 56 345 0.0 0.0 0.00 0.00 0.00 97 1017.6
20260506143052 56 347 0.0 0.0 0.00 0.00 0.00 99 1017.4
20260506142720 56 346 0.0 0.0 0.00 0.00 0.00 98 1017.4
20260506142217 56 347 0.0 0.0 0.00 0.00 0.00 98 1017.3
20260506141716 56 346 0.0 0.0 0.00 0.00 0.00 98 1017.5
20260506141224 56 346 0.0 0.0 0.00 0.00 0.00 98 1017.3
20260506140215 55 347 0.0 0.0 0.00 0.00 0.00 99 1017.2
20260506135715 55 346 0.0 0.0 0.00 0.00 0.00 99 1017.2
20260506135251 55 347 0.0 0.0 0.00 0.00 0.00 99 1016.6
20260506135211 55 344 0.0 0.0 0.00 0.00 0.00 99 1017.1
20260506134710 55 347 0.0 0.0 0.00 0.00 0.00 99 1017.1
20260506134209 55 346 0.0 0.0 0.00 0.00 0.00 99 1016.9
20260506133855 55 346 0.0 0.0 0.00 0.00 0.00 99 1016.7
20260506133208 55 346 0.0 0.0 0.00 0.00 0.00 99 1016.8
20260506132844 54 350 0.0 0.0 0.00 0.00 0.00 99 1016.5
20260506132714 55 346 0.0 0.0 0.00 0.00 0.00 99 1016.7
20260506131705 55 347 0.0 0.0 0.00 0.00 0.00 99 1016.5
20260506131209 55 346 0.0 0.0 0.00 0.00 0.00 99 1016.5
20260506130647 54 348 0.0 0.0 0.00 0.00 0.00 99 1016.4
20260506130208 54 348 0.0 0.0 0.00 0.00 0.00 99 1016.7
20260506125200 54 348 0.0 0.0 0.00 0.00 0.00 99 1016.4
20260506124702 54 348 0.0 0.0 0.00 0.00 0.00 99 1016.3
20260506123656 54 349 0.0 0.0 0.00 0.00 0.00 99 1016.4
20260506123443 53 349 0.0 0.0 0.00 0.00 0.00 99 1016.3
20260506123155 53 349 0.0 0.0 0.00 0.00 0.00 99 1016.4
20260506122654 53 349 0.0 0.0 0.00 0.00 0.00 99 1016.4
20260506122342 53 350 0.0 0.0 0.00 0.00 0.00 99 1016.2
20260506122153 53 349 0.0 0.0 0.00 0.00 0.00 99 1016.3
20260506121701 53 349 0.0 0.0 0.00 0.00 0.00 99 1016.4
20260506121042 53 349 0.0 0.0 0.00 0.00 0.00 99 1016.1
20260506120655 53 349 0.0 0.0 0.00 0.00 0.00 99 1016.2
20260506120353 53 350 0.0 0.0 0.00 0.00 0.00 99 1016.1
20260506115158 53 350 0.0 0.0 0.00 0.00 0.00 99 1016.1
20260506113645 53 351 0.0 0.0 0.00 0.00 0.00 99 1016.0
20260506113143 53 351 0.0 0.0 0.00 0.00 0.00 99 1016.0
20260506113053 53 351 0.0 0.0 0.00 0.00 0.00 99 1016.0
20260506112645 53 351 0.0 0.0 0.00 0.00 0.00 99 1015.9
20260506111640 52 351 0.0 0.0 0.00 0.00 0.00 99 1016.0
20260506111140 52 351 0.0 0.0 0.00 0.00 0.00 99 1016.1
20260506110638 52 351 0.0 0.0 0.00 0.00 0.00 99 1015.9
20260506110415 52 351 0.0 0.0 0.00 0.01 0.00 99 1016.0
20260506110138 52 351 0.0 0.0 0.00 0.01 0.00 99 1015.9
20260506105640 52 351 0.0 0.0 0.00 0.01 0.00 99 1016.0
20260506104635 53 351 0.0 0.0 0.00 0.01 0.00 99 1015.9
20260506104424 53 351 0.0 0.0 0.00 0.01 0.00 99 1015.8
20260506104134 53 351 0.0 0.0 0.00 0.01 0.00 99 1015.8
20260506103634 53 351 0.0 0.0 0.00 0.01 0.00 99 1015.8
20260506102630 54 351 0.0 0.0 0.00 0.01 0.00 99 1015.9
20260506102129 54 351 0.0 0.0 0.00 0.01 0.00 99 1015.8
20260506101627 55 351 0.0 0.0 0.00 0.01 0.00 98 1015.8
20260506101128 55 351 0.0 0.0 0.00 0.01 0.00 98 1015.8
20260506100800 55 351 0.0 0.0 0.00 0.01 0.00 98 1016.0
20260506100125 56 351 0.0 0.0 0.00 0.01 0.00 98 1016.0
20260506095636 56 351 0.0 0.0 0.00 0.01 0.00 98 1016.0
20260506094731 57 350 0.0 0.0 0.00 0.01 0.00 97 1016.0
20260506094623 56 351 0.0 0.0 0.00 0.01 0.00 97 1015.8
20260506094137 56 349 0.0 0.0 0.00 0.01 0.00 97 1015.6
20260506093120 57 350 0.0 0.0 0.00 0.01 0.00 97 1015.7
20260506092618 57 350 0.0 0.0 0.00 0.01 0.00 97 1015.9
20260506092117 57 350 0.0 0.0 0.00 0.01 0.00 97 1015.8
20260506091617 57 351 0.0 0.0 0.00 0.01 0.00 97 1015.9
20260506091116 57 351 0.0 0.0 0.00 0.01 0.00 97 1015.8
20260506090615 57 351 0.0 0.0 0.00 0.01 0.00 97 1015.7
20260506090114 57 351 0.0 0.0 0.00 0.01 0.00 96 1015.5
20260506085613 57 351 0.0 0.0 0.00 0.01 0.00 96 1015.7
20260506085112 57 351 0.0 0.9 0.00 0.01 0.00 96 1015.8
20260506084739 57 350 0.0 1.7 0.00 0.01 0.00 96 1016.1
20260506084615 57 351 0.0 0.9 0.00 0.01 0.00 96 1015.7
20260506084329 57 351 0.0 0.9 0.00 0.01 0.00 96 1016.0
20260506084110 57 351 0.0 0.9 0.00 0.01 0.00 96 1015.8
20260506083610 57 351 0.0 0.9 0.00 0.01 0.00 96 1015.8
20260506083137 57 351 0.0 1.7 0.00 0.01 0.00 96 1015.9
20260506081604 57 351 0.0 0.9 0.00 0.01 0.00 96 1015.9
20260506081104 57 353 0.0 0.9 0.00 0.01 0.00 95 1015.9
20260506080603 57 352 0.0 1.7 0.00 0.01 0.00 95 1015.8
20260506073057 57 351 0.0 1.7 0.00 0.01 0.00 95 1015.6
20260506073024 57 351 0.0 0.9 0.00 0.01 0.00 95 1015.3
20260506072556 57 351 0.0 1.7 0.00 0.01 0.00 95 1015.6
20260506072110 57 351 0.0 0.9 0.00 0.01 0.00 95 1015.4
20260506071052 57 351 0.0 0.9 0.00 0.01 0.00 95 1015.5
20260506070544 57 351 0.0 0.9 0.00 0.01 0.00 94 1015.5
20260506062030 58 331 0.0 1.7 0.00 0.01 0.01 91 1015.1
20260506061537 58 358 0.0 1.7 0.00 0.01 0.01 91 1015.1
20260506060557 58 308 0.0 2.6 0.00 0.01 0.01 91 1014.6
20260506060527 58 330 0.9 0.9 0.00 0.01 0.01 91 1015.0
20260506050621 58 307 0.0 2.6 0.00 0.01 0.01 91 1014.2
20260506050515 58 357 0.9 2.6 0.00 0.01 0.01 91 1014.4
20260506045011 58 255 0.0 1.7 0.00 0.01 0.01 91 1014.2
20260506044514 58 259 0.0 1.7 0.00 0.01 0.01 91 1014.3
20260506044017 58 4 0.0 2.6 0.00 0.01 0.01 91 1014.4
20260506043032 58 288 0.0 1.7 0.00 0.01 0.01 90 1014.2
20260506042511 58 272 0.0 1.7 0.00 0.01 0.01 91 1014.1
20260506042009 59 299 0.9 3.5 0.00 0.01 0.01 91 1014.1
20260506041510 59 334 0.0 3.5 0.00 0.01 0.01 90 1014.0
20260506041039 59 326 0.0 3.5 0.00 0.01 0.01 90 1013.9
20260506040507 59 285 0.0 3.5 0.00 0.01 0.01 90 1013.8
20260506035719 59 276 0.9 3.5 0.00 0.01 0.01 89 1013.4
20260506035500 59 322 0.9 3.5 0.00 0.01 0.01 90 1013.8
20260506035002 59 272 1.7 5.2 0.00 0.01 0.01 90 1013.6
20260506034939 59 284 0.9 3.5 0.00 0.01 0.01 88 1013.2
20260506034615 59 283 0.9 7.0 0.00 0.01 0.01 88 1013.3
20260506034517 59 271 1.7 5.2 0.00 0.01 0.01 90 1013.7
20260506033002 59 250 0.9 3.5 0.00 0.01 0.01 88 1013.5
20260506031452 59 249 3.5 7.0 0.00 0.01 0.01 87 1013.2
20260506031015 60 295 0.9 6.1 0.00 0.01 0.01 87 1013.2
20260506030458 60 323 0.0 7.0 0.00 0.01 0.01 86 1013.2
20260506025450 60 224 0.0 5.2 0.00 0.01 0.01 86 1013.1
20260506024948 60 171 0.9 5.2 0.00 0.01 0.01 86 1013.1
20260506024447 60 221 0.0 5.2 0.00 0.01 0.01 86 1012.9
20260506023946 60 218 1.7 3.5 0.00 0.01 0.01 86 1012.9
20260506023447 60 291 0.9 5.2 0.00 0.01 0.01 86 1012.8
20260506022947 60 243 2.6 5.2 0.00 0.01 0.01 86 1012.7
20260506022445 60 275 1.7 7.8 0.00 0.01 0.01 87 1012.8
20260506022402 61 237 3.5 6.1 0.00 0.01 0.01 86 1012.4
20260506021944 60 339 0.9 7.8 0.00 0.01 0.01 87 1012.8
20260506021444 60 95 0.9 5.2 0.00 0.01 0.01 86 1012.7
20260506020942 60 291 1.7 5.2 0.00 0.01 0.01 86 1012.7
20260506020442 60 234 0.0 5.2 0.00 0.01 0.01 86 1012.6
20260506015940 60 310 0.0 5.2 0.00 0.01 0.01 86 1012.8
20260506015440 60 299 1.7 7.0 0.00 0.01 0.01 86 1012.7
20260506014937 60 273 0.9 7.0 0.00 0.01 0.01 86 1012.9
20260506014803 60 182 0.9 6.1 0.00 0.01 0.01 86 1012.8
20260506014437 60 262 1.7 3.5 0.00 0.01 0.01 86 1013.0
20260506013943 60 249 2.6 5.2 0.00 0.01 0.01 86 1012.9
20260506012934 60 343 0.9 7.0 0.00 0.01 0.01 86 1012.7
20260506012751 61 267 3.5 5.2 0.00 0.01 0.01 86 1012.8
20260506012432 60 239 4.3 7.0 0.00 0.01 0.01 86 1012.8
20260506011936 60 301 1.7 6.1 0.00 0.01 0.01 86 1012.7
20260506010929 61 328 0.9 5.2 0.00 0.01 0.01 86 1012.6
20260506010426 61 235 1.7 5.2 0.00 0.01 0.01 86 1012.7
20260506010358 61 307 3.5 7.0 0.00 0.01 0.01 86 1012.5
20260506005924 61 236 0.9 7.0 0.00 0.01 0.01 86 1012.6
20260506005649 61 274 1.7 7.0 0.00 0.01 0.01 86 1012.5
20260506005428 61 223 0.9 7.0 0.00 0.01 0.01 86 1012.6
20260506004431 61 285 4.3 7.0 0.00 0.01 0.01 86 1012.6
20260506003445 61 244 2.6 7.0 0.00 0.01 0.01 86 1012.6
20260506002929 61 266 0.9 6.1 0.00 0.01 0.01 86 1012.4